Time,TemperatureF,DewpointF,PressureIn,WindDirection,WindDirectionDegrees,WindSpeedMPH,WindSpeedGustMPH,Humidity,HourlyPrecipIn,Conditions,Clouds,dailyrainin,SoftwareType,DateUTC
2013-09-22 00:04:00,72.9,48.5,29.74,West,273,0.0,0.0,42,0.00,,---,0.00,VWS V14.01,2013-09-22 05:04:00,
2013-09-22 00:09:00,72.7,48.9,29.74,West,273,0.0,0.0,43,0.00,,---,0.00,VWS V14.01,2013-09-22 05:09:00,
2013-09-22 00:15:00,72.7,49.5,29.74,West,275,0.0,0.0,44,0.00,,---,0.00,VWS V14.01,2013-09-22 05:15:00,
2013-09-22 00:20:00,72.5,49.4,29.74,West,276,0.0,0.0,44,0.00,,---,0.00,VWS V14.01,2013-09-22 05:20:00,
2013-09-22 00:26:00,72.3,49.8,29.74,West,276,0.0,0.0,45,0.00,,---,0.00,VWS V14.01,2013-09-22 05:26:00,
2013-09-22 00:32:00,72.1,49.7,29.74,West,274,0.0,0.0,45,0.00,,---,0.00,VWS V14.01,2013-09-22 05:32:00,
2013-09-22 00:37:00,72.1,50.2,29.74,West,273,0.0,0.0,46,0.00,,---,0.00,VWS V14.01,2013-09-22 05:37:00,
2013-09-22 00:44:00,72.0,50.7,29.74,West,273,0.0,0.0,47,0.00,,---,0.00,VWS V14.01,2013-09-22 05:44:00,
2013-09-22 00:49:00,71.8,50.5,29.74,West,273,0.0,0.0,47,0.00,,---,0.00,VWS V14.01,2013-09-22 05:49:00,
2013-09-22 00:55:00,71.6,50.9,29.74,West,273,0.0,0.0,48,0.00,,---,0.00,VWS V14.01,2013-09-22 05:55:00,
2013-09-22 01:00:00,71.4,51.3,29.74,West,273,0.0,0.0,49,0.00,,---,0.00,VWS V14.01,2013-09-22 06:00:00,
2013-09-22 01:05:00,71.4,51.8,29.74,West,273,0.0,0.0,50,0.00,,---,0.00,VWS V14.01,2013-09-22 06:05:00,
2013-09-22 01:10:00,71.2,51.7,29.74,West,277,0.0,0.0,50,0.00,,---,0.00,VWS V14.01,2013-09-22 06:10:00,
2013-09-22 01:15:00,71.2,51.7,29.74,West,273,0.0,0.0,50,0.00,,---,0.00,VWS V14.01,2013-09-22 06:15:00,
2013-09-22 01:21:00,71.2,52.2,29.74,West,278,0.0,0.0,51,0.00,,---,0.00,VWS V14.01,2013-09-22 06:21:00,
2013-09-22 01:27:00,71.2,52.7,29.74,West,273,0.0,0.0,52,0.00,,---,0.00,VWS V14.01,2013-09-22 06:27:00,
2013-09-22 01:33:00,71.1,52.6,29.74,West,273,0.0,0.0,52,0.00,,---,0.00,VWS V14.01,2013-09-22 06:33:00,
2013-09-22 01:39:00,71.1,53.1,29.74,West,273,0.0,0.0,53,0.00,,---,0.00,VWS V14.01,2013-09-22 06:39:00,
2013-09-22 01:44:00,70.9,52.9,29.74,West,276,0.0,0.0,53,0.00,,---,0.00,VWS V14.01,2013-09-22 06:44:00,
2013-09-22 01:49:00,70.9,52.9,29.74,West,277,0.0,0.0,53,0.00,,---,0.00,VWS V14.01,2013-09-22 06:49:00,
2013-09-22 01:54:00,70.9,53.4,29.74,West,277,0.0,0.0,54,0.00,,---,0.00,VWS V14.01,2013-09-22 06:54:00,
2013-09-22 01:59:00,70.7,53.3,29.74,West,273,0.0,0.0,54,0.00,,---,0.00,VWS V14.01,2013-09-22 06:59:00,
2013-09-22 02:05:00,70.7,53.8,29.74,West,275,0.0,0.0,55,0.00,,---,0.00,VWS V14.01,2013-09-22 07:05:00,
2013-09-22 02:10:00,70.5,53.6,29.74,West,275,0.0,0.0,55,0.00,,---,0.00,VWS V14.01,2013-09-22 07:10:00,
2013-09-22 02:15:00,70.5,54.1,29.74,West,273,0.0,0.0,56,0.00,,---,0.00,VWS V14.01,2013-09-22 07:15:00,
2013-09-22 02:20:00,70.5,54.1,29.74,West,276,0.0,0.0,56,0.00,,---,0.00,VWS V14.01,2013-09-22 07:20:00,
2013-09-22 02:25:00,70.5,54.1,29.74,West,273,0.0,0.0,56,0.00,,---,0.00,VWS V14.01,2013-09-22 07:25:00,
2013-09-22 02:31:00,70.5,54.6,29.74,West,273,0.0,0.0,57,0.00,,---,0.00,VWS V14.01,2013-09-22 07:31:00,
2013-09-22 02:36:00,70.5,54.6,29.74,West,275,0.0,0.0,57,0.00,,---,0.00,VWS V14.01,2013-09-22 07:36:00,
2013-09-22 02:42:00,70.5,54.1,29.74,West,273,0.0,0.0,56,0.00,,---,0.00,VWS V14.01,2013-09-22 07:42:00,
2013-09-22 02:47:00,70.5,54.1,29.74,West,274,0.0,0.0,56,0.00,,---,0.00,VWS V14.01,2013-09-22 07:47:00,
2013-09-22 02:52:00,70.5,54.1,29.74,West,278,0.0,0.0,56,0.00,,---,0.00,VWS V14.01,2013-09-22 07:52:00,
2013-09-22 02:58:00,70.5,54.1,29.74,West,275,0.0,0.0,56,0.00,,---,0.00,VWS V14.01,2013-09-22 07:58:00,
2013-09-22 03:03:00,70.5,54.1,29.74,West,274,0.0,0.0,56,0.00,,---,0.00,VWS V14.01,2013-09-22 08:03:00,
2013-09-22 03:08:00,70.5,54.1,29.74,West,274,0.0,0.0,56,0.00,,---,0.00,VWS V14.01,2013-09-22 08:08:00,
2013-09-22 03:13:00,70.5,53.6,29.74,West,275,0.0,0.0,55,0.00,,---,0.00,VWS V14.01,2013-09-22 08:13:00,
2013-09-22 03:18:00,70.3,53.4,29.74,West,273,0.0,0.0,55,0.00,,---,0.00,VWS V14.01,2013-09-22 08:18:00,
2013-09-22 03:24:00,70.3,52.9,29.74,West,273,0.0,0.0,54,0.00,,---,0.00,VWS V14.01,2013-09-22 08:24:00,
2013-09-22 03:29:00,70.3,52.9,29.74,West,273,0.0,0.0,54,0.00,,---,0.00,VWS V14.01,2013-09-22 08:29:00,
2013-09-22 03:35:00,70.2,52.2,29.74,West,273,0.0,0.0,53,0.00,,---,0.00,VWS V14.01,2013-09-22 08:35:00,
2013-09-22 03:40:00,70.2,51.7,29.74,West,276,0.0,0.0,52,0.00,,---,0.00,VWS V14.01,2013-09-22 08:40:00,
2013-09-22 03:46:00,70.2,51.2,29.74,West,278,0.0,0.0,51,0.00,,---,0.00,VWS V14.01,2013-09-22 08:46:00,
2013-09-22 03:52:00,70.0,50.5,29.74,West,273,0.0,0.0,50,0.00,,---,0.00,VWS V14.01,2013-09-22 08:52:00,
2013-09-22 03:57:00,69.8,49.8,29.74,West,273,0.0,0.0,49,0.00,,---,0.00,VWS V14.01,2013-09-22 08:57:00,
2013-09-22 04:03:00,69.8,49.2,29.74,West,276,0.0,0.0,48,0.00,,---,0.00,VWS V14.01,2013-09-22 09:03:00,
2013-09-22 04:08:00,69.6,49.1,29.74,West,273,0.0,0.0,48,0.00,,---,0.00,VWS V14.01,2013-09-22 09:08:00,
2013-09-22 04:14:00,69.4,48.3,29.74,West,278,0.0,0.0,47,0.00,,---,0.00,VWS V14.01,2013-09-22 09:14:00,
2013-09-22 04:19:00,69.4,47.8,29.74,West,273,0.0,0.0,46,0.00,,---,0.00,VWS V14.01,2013-09-22 09:19:00,
2013-09-22 04:24:00,69.3,47.6,29.74,West,277,0.0,0.0,46,0.00,,---,0.00,VWS V14.01,2013-09-22 09:24:00,
2013-09-22 04:30:00,69.1,46.9,29.74,West,278,0.0,0.0,45,0.00,,---,0.00,VWS V14.01,2013-09-22 09:30:00,
2013-09-22 04:35:00,68.9,46.7,29.74,West,273,0.0,0.0,45,0.00,,---,0.00,VWS V14.01,2013-09-22 09:35:00,
2013-09-22 04:41:00,68.9,46.7,29.74,West,273,0.0,0.0,45,0.00,,---,0.00,VWS V14.01,2013-09-22 09:41:00,
2013-09-22 04:46:00,68.9,46.1,29.74,West,277,0.0,0.0,44,0.00,,---,0.00,VWS V14.01,2013-09-22 09:46:00,
2013-09-22 04:51:00,68.7,46.0,29.74,West,277,0.0,0.0,44,0.00,,---,0.00,VWS V14.01,2013-09-22 09:51:00,
2013-09-22 04:56:00,68.5,45.8,29.74,West,273,0.0,0.0,44,0.00,,---,0.00,VWS V14.01,2013-09-22 09:56:00,
2013-09-22 05:02:00,68.4,45.6,29.74,West,278,0.0,0.0,44,0.00,,---,0.00,VWS V14.01,2013-09-22 10:02:00,
2013-09-22 05:07:00,68.4,45.6,29.74,West,278,0.0,0.0,44,0.00,,---,0.00,VWS V14.01,2013-09-22 10:07:00,
2013-09-22 05:12:00,68.2,45.5,29.74,West,273,0.0,0.0,44,0.00,,---,0.00,VWS V14.01,2013-09-22 10:12:00,
2013-09-22 05:17:00,68.2,44.9,29.74,West,273,0.0,0.0,43,0.00,,---,0.00,VWS V14.01,2013-09-22 10:17:00,
2013-09-22 05:23:00,68.0,44.7,29.74,West,273,0.0,0.0,43,0.00,,---,0.00,VWS V14.01,2013-09-22 10:23:00,
2013-09-22 05:28:00,68.0,44.7,29.74,West,273,0.0,0.0,43,0.00,,---,0.00,VWS V14.01,2013-09-22 10:28:00,
2013-09-22 05:34:00,67.8,44.5,29.74,West,273,0.0,0.0,43,0.00,,---,0.00,VWS V14.01,2013-09-22 10:34:00,
2013-09-22 05:40:00,67.6,44.4,29.74,West,275,0.0,0.0,43,0.00,,---,0.00,VWS V14.01,2013-09-22 10:40:00,
2013-09-22 05:45:00,67.6,44.4,29.74,West,273,0.0,0.0,43,0.00,,---,0.00,VWS V14.01,2013-09-22 10:45:00,
2013-09-22 05:51:00,67.5,44.2,29.74,West,273,0.0,0.0,43,0.00,,---,0.00,VWS V14.01,2013-09-22 10:51:00,
2013-09-22 06:04:00,67.1,44.5,29.74,West,273,0.0,0.0,44,0.00,,---,0.00,VWS V14.01,2013-09-22 11:04:00,
2013-09-22 06:09:00,67.1,44.5,29.74,West,273,0.0,0.0,44,0.00,,---,0.00,VWS V14.01,2013-09-22 11:09:00,
2013-09-22 06:15:00,66.9,44.3,29.74,West,273,0.0,0.0,44,0.00,,---,0.00,VWS V14.01,2013-09-22 11:15:00,
2013-09-22 06:20:00,66.9,44.3,29.74,West,273,0.0,0.0,44,0.00,,---,0.00,VWS V14.01,2013-09-22 11:20:00,
2013-09-22 06:25:00,66.7,44.2,29.74,West,277,0.0,0.0,44,0.00,,---,0.00,VWS V14.01,2013-09-22 11:25:00,
2013-09-22 06:30:00,66.7,44.2,29.74,West,273,0.0,0.0,44,0.00,,---,0.00,VWS V14.01,2013-09-22 11:30:00,
2013-09-22 06:35:00,66.6,44.0,29.74,West,278,0.0,0.0,44,0.00,,---,0.00,VWS V14.01,2013-09-22 11:35:00,
2013-09-22 06:41:00,66.6,44.0,29.74,West,276,0.0,0.0,44,0.00,,---,0.00,VWS V14.01,2013-09-22 11:41:00,
2013-09-22 06:46:00,66.4,43.8,29.74,West,273,0.0,0.0,44,0.00,,---,0.00,VWS V14.01,2013-09-22 11:46:00,
2013-09-22 06:52:00,66.4,43.8,29.74,West,273,0.0,0.0,44,0.00,,---,0.00,VWS V14.01,2013-09-22 11:52:00,
2013-09-22 06:57:00,66.2,43.7,29.74,West,273,0.0,0.0,44,0.00,,---,0.00,VWS V14.01,2013-09-22 11:57:00,
2013-09-22 07:02:00,66.2,43.7,29.74,West,278,0.0,0.0,44,0.00,,---,0.00,VWS V14.01,2013-09-22 12:02:00,
2013-09-22 07:07:00,66.0,44.1,29.74,West,273,0.0,0.0,45,0.00,,---,0.00,VWS V14.01,2013-09-22 12:07:00,
2013-09-22 07:13:00,66.0,44.1,29.74,West,278,0.0,0.0,45,0.00,,---,0.00,VWS V14.01,2013-09-22 12:13:00,
2013-09-22 07:19:00,66.0,44.1,29.74,West,276,0.0,0.0,45,0.00,,---,0.00,VWS V14.01,2013-09-22 12:19:00,
2013-09-22 07:24:00,65.8,43.9,29.74,West,276,0.0,0.0,45,0.00,,---,0.00,VWS V14.01,2013-09-22 12:24:00,
2013-09-22 07:29:00,65.8,43.9,29.74,West,277,0.0,0.0,45,0.00,,---,0.00,VWS V14.01,2013-09-22 12:29:00,
2013-09-22 07:35:00,65.8,43.9,29.74,West,276,0.0,0.0,45,0.00,,---,0.00,VWS V14.01,2013-09-22 12:35:00,
2013-09-22 07:40:00,65.8,43.9,29.74,West,273,0.0,0.0,45,0.00,,---,0.00,VWS V14.01,2013-09-22 12:40:00,
2013-09-22 07:46:00,65.8,43.9,29.74,West,276,0.0,0.0,45,0.00,,---,0.00,VWS V14.01,2013-09-22 12:46:00,
2013-09-22 07:51:00,65.8,43.9,29.74,West,275,0.0,0.0,45,0.00,,---,0.00,VWS V14.01,2013-09-22 12:51:00,
2013-09-22 07:57:00,66.0,44.1,29.74,West,275,0.0,0.0,45,0.00,,---,0.00,VWS V14.01,2013-09-22 12:57:00,
2013-09-22 08:02:00,66.2,43.7,29.77,West,276,0.0,0.0,44,0.00,,---,0.00,VWS V14.01,2013-09-22 13:02:00,
2013-09-22 08:07:00,66.4,43.8,29.77,West,276,0.0,0.0,44,0.00,,---,0.00,VWS V14.01,2013-09-22 13:07:00,
2013-09-22 08:12:00,66.6,43.4,29.77,West,276,0.0,0.0,43,0.00,,---,0.00,VWS V14.01,2013-09-22 13:12:00,
2013-09-22 08:18:00,66.9,43.7,29.77,West,273,0.0,0.0,43,0.00,,---,0.00,VWS V14.01,2013-09-22 13:18:00,
2013-09-22 08:23:00,67.3,44.0,29.77,West,273,0.0,0.0,43,0.00,,---,0.00,VWS V14.01,2013-09-22 13:23:00,
2013-09-22 08:29:00,67.5,43.6,29.77,West,273,0.0,0.0,42,0.00,,---,0.00,VWS V14.01,2013-09-22 13:29:00,
2013-09-22 08:35:00,67.8,43.3,29.77,West,278,0.0,0.0,41,0.00,,---,0.00,VWS V14.01,2013-09-22 13:35:00,
2013-09-22 08:40:00,68.2,42.3,29.77,West,275,0.0,0.0,39,0.00,,---,0.00,VWS V14.01,2013-09-22 13:40:00,
2013-09-22 08:45:00,68.4,41.8,29.77,West,273,0.0,0.0,38,0.00,,---,0.00,VWS V14.01,2013-09-22 13:45:00,
2013-09-22 08:50:00,68.7,42.1,29.77,West,278,0.0,0.0,38,0.00,,---,0.00,VWS V14.01,2013-09-22 13:50:00,
2013-09-22 08:56:00,69.1,41.7,29.77,West,275,0.0,0.0,37,0.00,,---,0.00,VWS V14.01,2013-09-22 13:56:00,
2013-09-22 09:02:00,69.4,42.1,29.77,West,273,0.0,0.0,37,0.00,,---,0.00,VWS V14.01,2013-09-22 14:02:00,
2013-09-22 09:08:00,69.8,40.9,29.77,West,275,0.0,0.0,35,0.00,,---,0.00,VWS V14.01,2013-09-22 14:08:00,
2013-09-22 09:14:00,70.2,40.5,29.77,West,277,0.0,0.0,34,0.00,,---,0.00,VWS V14.01,2013-09-22 14:14:00,
2013-09-22 09:19:00,70.5,40.8,29.77,West,273,0.0,0.0,34,0.00,,---,0.00,VWS V14.01,2013-09-22 14:19:00,
2013-09-22 09:25:00,70.9,41.1,29.77,West,275,0.0,0.0,34,0.00,,---,0.00,VWS V14.01,2013-09-22 14:25:00,
2013-09-22 09:30:00,71.2,41.5,29.77,West,273,0.0,0.0,34,0.00,,---,0.00,VWS V14.01,2013-09-22 14:30:00,
2013-09-22 09:36:00,72.0,41.3,29.77,West,278,0.0,0.0,33,0.00,,---,0.00,VWS V14.01,2013-09-22 14:36:00,
2013-09-22 09:42:00,72.5,41.8,29.77,West,277,0.0,0.0,33,0.00,,---,0.00,VWS V14.01,2013-09-22 14:42:00,
2013-09-22 09:47:00,72.9,42.1,29.77,West,275,0.0,0.0,33,0.00,,---,0.00,VWS V14.01,2013-09-22 14:47:00,
2013-09-22 09:53:00,73.4,41.8,29.77,West,278,0.0,0.0,32,0.00,,---,0.00,VWS V14.01,2013-09-22 14:53:00,
2013-09-22 09:58:00,73.9,42.2,29.77,West,273,0.0,0.0,32,0.00,,---,0.00,VWS V14.01,2013-09-22 14:58:00,
2013-09-22 10:04:00,74.3,41.7,29.77,West,273,0.0,0.0,31,0.00,,---,0.00,VWS V14.01,2013-09-22 15:04:00,
2013-09-22 10:09:00,74.5,41.9,29.77,West,278,0.0,0.0,31,0.00,,---,0.00,VWS V14.01,2013-09-22 15:09:00,
2013-09-22 10:14:00,75.0,42.4,29.77,West,275,0.0,0.0,31,0.00,,---,0.00,VWS V14.01,2013-09-22 15:14:00,
2013-09-22 10:20:00,75.4,41.8,29.77,West,273,0.0,0.0,30,0.00,,---,0.00,VWS V14.01,2013-09-22 15:20:00,
2013-09-22 10:25:00,75.7,42.1,29.77,West,273,0.0,0.0,30,0.00,,---,0.00,VWS V14.01,2013-09-22 15:25:00,
2013-09-22 10:30:00,76.1,42.5,29.80,West,278,0.0,0.0,30,0.00,,---,0.00,VWS V14.01,2013-09-22 15:30:00,
2013-09-22 10:35:00,76.6,42.9,29.80,West,273,0.0,0.0,30,0.00,,---,0.00,VWS V14.01,2013-09-22 15:35:00,
2013-09-22 10:40:00,77.2,42.5,29.80,West,273,0.0,0.0,29,0.00,,---,0.00,VWS V14.01,2013-09-22 15:40:00,
2013-09-22 10:46:00,77.7,42.0,29.80,West,275,0.0,0.0,28,0.00,,---,0.00,VWS V14.01,2013-09-22 15:46:00,
2013-09-22 10:52:00,78.3,42.5,29.80,West,275,0.0,0.0,28,0.00,,---,0.00,VWS V14.01,2013-09-22 15:52:00,
2013-09-22 10:57:00,78.4,42.7,29.80,West,273,0.0,0.0,28,0.00,,---,0.00,VWS V14.01,2013-09-22 15:57:00,
2013-09-22 11:02:00,78.8,42.0,29.80,West,277,0.0,0.0,27,0.00,,---,0.00,VWS V14.01,2013-09-22 16:02:00,
2013-09-22 11:07:00,79.2,43.3,29.80,West,273,0.0,0.0,28,0.00,,---,0.00,VWS V14.01,2013-09-22 16:07:00,
2013-09-22 11:12:00,79.7,43.8,29.80,West,274,0.0,0.0,28,0.00,,---,0.00,VWS V14.01,2013-09-22 16:12:00,
2013-09-22 11:17:00,80.1,43.1,29.80,West,277,0.0,0.0,27,0.00,,---,0.00,VWS V14.01,2013-09-22 16:17:00,
2013-09-22 11:22:00,80.4,43.4,29.80,West,273,0.0,0.0,27,0.00,,---,0.00,VWS V14.01,2013-09-22 16:22:00,
2013-09-22 11:28:00,80.6,41.6,29.80,West,273,0.0,0.0,25,0.00,,---,0.00,VWS V14.01,2013-09-22 16:28:00,
2013-09-22 11:34:00,80.8,41.7,29.80,West,273,0.0,0.0,25,0.00,,---,0.00,VWS V14.01,2013-09-22 16:34:00,
2013-09-22 11:39:00,81.1,41.0,29.80,West,274,0.0,0.0,24,0.00,,---,0.00,VWS V14.01,2013-09-22 16:39:00,
2013-09-22 11:45:00,81.3,41.1,29.80,West,277,0.0,0.0,24,0.00,,---,0.00,VWS V14.01,2013-09-22 16:45:00,
2013-09-22 11:50:00,81.3,41.1,29.80,West,275,0.0,0.0,24,0.00,,---,0.00,VWS V14.01,2013-09-22 16:50:00,
2013-09-22 11:55:00,81.7,41.4,29.80,West,278,0.0,0.0,24,0.00,,---,0.00,VWS V14.01,2013-09-22 16:55:00,
2013-09-22 12:00:00,82.0,41.7,29.77,West,273,0.0,0.0,24,0.00,,---,0.00,VWS V14.01,2013-09-22 17:00:00,
2013-09-22 12:06:00,82.6,41.1,29.77,West,276,0.0,0.0,23,0.00,,---,0.00,VWS V14.01,2013-09-22 17:06:00,
2013-09-22 12:11:00,82.9,41.4,29.77,West,278,0.0,0.0,23,0.00,,---,0.00,VWS V14.01,2013-09-22 17:11:00,
2013-09-22 12:17:00,82.9,39.0,29.77,West,275,0.0,0.0,21,0.00,,---,0.00,VWS V14.01,2013-09-22 17:17:00,
2013-09-22 12:23:00,82.9,39.0,29.77,West,277,0.0,0.0,21,0.00,,---,0.00,VWS V14.01,2013-09-22 17:23:00,
2013-09-22 12:28:00,82.9,40.2,29.77,West,276,0.0,0.0,22,0.00,,---,0.00,VWS V14.01,2013-09-22 17:28:00,
2013-09-22 12:34:00,83.1,40.4,29.77,West,275,0.0,0.0,22,0.00,,---,0.00,VWS V14.01,2013-09-22 17:34:00,
2013-09-22 12:40:00,83.7,40.8,29.77,West,275,0.0,0.0,22,0.00,,---,0.00,VWS V14.01,2013-09-22 17:40:00,
2013-09-22 12:45:00,84.0,41.1,29.77,West,276,0.0,0.0,22,0.00,,---,0.00,VWS V14.01,2013-09-22 17:45:00,
2013-09-22 12:51:00,84.2,40.1,29.77,West,273,0.0,0.0,21,0.00,,---,0.00,VWS V14.01,2013-09-22 17:51:00,
2013-09-22 12:56:00,84.2,38.8,29.77,West,273,0.0,0.0,20,0.00,,---,0.00,VWS V14.01,2013-09-22 17:56:00,
2013-09-22 13:02:00,84.4,40.2,29.77,West,275,0.0,0.0,21,0.00,,---,0.00,VWS V14.01,2013-09-22 18:02:00,
2013-09-22 13:07:00,84.6,39.1,29.77,West,277,0.0,0.0,20,0.00,,---,0.00,VWS V14.01,2013-09-22 18:07:00,
2013-09-22 13:13:00,84.7,39.3,29.77,West,273,0.0,0.0,20,0.00,,---,0.00,VWS V14.01,2013-09-22 18:13:00,
2013-09-22 13:18:00,84.9,39.4,29.74,West,273,0.0,0.0,20,0.00,,---,0.00,VWS V14.01,2013-09-22 18:18:00,
2013-09-22 13:24:00,85.1,38.2,29.74,West,277,0.0,0.0,19,0.00,,---,0.00,VWS V14.01,2013-09-22 18:24:00,
2013-09-22 13:29:00,84.9,38.1,29.74,West,278,0.0,0.0,19,0.00,,---,0.00,VWS V14.01,2013-09-22 18:29:00,
2013-09-22 13:34:00,84.9,38.1,29.74,West,273,0.0,0.0,19,0.00,,---,0.00,VWS V14.01,2013-09-22 18:34:00,
2013-09-22 13:40:00,84.9,38.1,29.74,West,273,0.0,0.0,19,0.00,,---,0.00,VWS V14.01,2013-09-22 18:40:00,
2013-09-22 13:45:00,84.9,36.7,29.74,West,276,0.0,0.0,18,0.00,,---,0.00,VWS V14.01,2013-09-22 18:45:00,
2013-09-22 13:50:00,85.1,38.2,29.74,West,275,0.0,0.0,19,0.00,,---,0.00,VWS V14.01,2013-09-22 18:50:00,
2013-09-22 13:55:00,85.5,38.5,29.74,West,273,0.0,0.0,19,0.00,,---,0.00,VWS V14.01,2013-09-22 18:55:00,
2013-09-22 14:00:00,85.6,38.7,29.74,West,273,0.0,0.0,19,0.00,,---,0.00,VWS V14.01,2013-09-22 19:00:00,
2013-09-22 14:06:00,86.0,37.6,29.74,West,273,0.0,0.0,18,0.00,,---,0.00,VWS V14.01,2013-09-22 19:06:00,
2013-09-22 14:11:00,86.2,37.8,29.74,West,275,0.0,0.0,18,0.00,,---,0.00,VWS V14.01,2013-09-22 19:11:00,
2013-09-22 14:16:00,86.4,37.9,29.74,West,273,0.0,0.0,18,0.00,,---,0.00,VWS V14.01,2013-09-22 19:16:00,
2013-09-22 14:22:00,86.7,38.2,29.74,West,276,0.0,0.0,18,0.00,,---,0.00,VWS V14.01,2013-09-22 19:22:00,
2013-09-22 14:27:00,86.7,38.2,29.74,West,273,0.0,0.0,18,0.00,,---,0.00,VWS V14.01,2013-09-22 19:27:00,
2013-09-22 14:33:00,86.9,38.3,29.71,West,278,0.0,0.0,18,0.00,,---,0.00,VWS V14.01,2013-09-22 19:33:00,
2013-09-22 14:38:00,87.1,35.5,29.71,West,273,0.0,0.0,16,0.00,,---,0.00,VWS V14.01,2013-09-22 19:38:00,
2013-09-22 14:44:00,86.9,35.3,29.71,West,275,0.0,0.0,16,0.00,,---,0.00,VWS V14.01,2013-09-22 19:44:00,
2013-09-22 14:50:00,86.9,35.3,29.71,West,275,0.0,0.0,16,0.00,,---,0.00,VWS V14.01,2013-09-22 19:50:00,
2013-09-22 14:56:00,87.1,35.5,29.71,West,276,0.0,0.0,16,0.00,,---,0.00,VWS V14.01,2013-09-22 19:56:00,
2013-09-22 15:01:00,87.3,35.6,29.71,West,276,0.0,0.0,16,0.00,,---,0.00,VWS V14.01,2013-09-22 20:01:00,
2013-09-22 15:06:00,87.6,35.9,29.71,West,278,0.0,0.0,16,0.00,,---,0.00,VWS V14.01,2013-09-22 20:06:00,
2013-09-22 15:11:00,87.8,30.9,29.71,West,273,0.0,0.0,13,0.00,,---,0.00,VWS V14.01,2013-09-22 20:11:00,
2013-09-22 15:16:00,87.8,30.9,29.71,West,273,0.0,0.0,13,0.00,,---,0.00,VWS V14.01,2013-09-22 20:16:00,
2013-09-22 15:22:00,87.8,30.9,29.71,West,273,0.0,0.0,13,0.00,,---,0.00,VWS V14.01,2013-09-22 20:22:00,
2013-09-22 15:27:00,87.4,30.6,29.71,West,273,0.0,0.0,13,0.00,,---,0.00,VWS V14.01,2013-09-22 20:27:00,
2013-09-22 15:33:00,87.1,30.3,29.71,West,274,0.0,0.0,13,0.00,,---,0.00,VWS V14.01,2013-09-22 20:33:00,
2013-09-22 15:38:00,87.8,30.9,29.71,West,276,0.0,0.0,13,0.00,,---,0.00,VWS V14.01,2013-09-22 20:38:00,
2013-09-22 15:44:00,87.8,30.9,29.68,West,276,0.0,0.0,13,0.00,,---,0.00,VWS V14.01,2013-09-22 20:44:00,
2013-09-22 15:49:00,87.3,30.5,29.68,West,273,0.0,0.0,13,0.00,,---,0.00,VWS V14.01,2013-09-22 20:49:00,
2013-09-22 15:54:00,86.5,29.9,29.68,West,277,0.0,0.0,13,0.00,,---,0.00,VWS V14.01,2013-09-22 20:54:00,
2013-09-22 16:00:00,85.8,25.3,29.68,West,275,0.0,0.0,11,0.00,,---,0.00,VWS V14.01,2013-09-22 21:00:00,
2013-09-22 16:05:00,85.6,29.2,29.68,West,278,0.0,0.0,13,0.00,,---,0.00,VWS V14.01,2013-09-22 21:05:00,
2013-09-22 16:10:00,85.3,28.9,29.68,West,273,0.0,0.0,13,0.00,,---,0.00,VWS V14.01,2013-09-22 21:10:00,
2013-09-22 16:15:00,85.1,28.8,29.68,West,273,0.0,0.0,13,0.00,,---,0.00,VWS V14.01,2013-09-22 21:15:00,
2013-09-22 16:21:00,85.3,28.9,29.68,West,275,0.0,0.0,13,0.00,,---,0.00,VWS V14.01,2013-09-22 21:21:00,
2013-09-22 16:26:00,85.5,29.1,29.68,West,273,0.0,0.0,13,0.00,,---,0.00,VWS V14.01,2013-09-22 21:26:00,
2013-09-22 16:32:00,86.0,29.5,29.68,West,273,0.0,0.0,13,0.00,,---,0.00,VWS V14.01,2013-09-22 21:32:00,
2013-09-22 16:37:00,86.7,30.0,29.68,West,276,0.0,0.0,13,0.00,,---,0.00,VWS V14.01,2013-09-22 21:37:00,
2013-09-22 16:42:00,86.7,26.0,29.68,West,274,0.0,0.0,11,0.00,,---,0.00,VWS V14.01,2013-09-22 21:42:00,
2013-09-22 16:47:00,86.2,25.6,29.68,West,273,0.0,0.0,11,0.00,,---,0.00,VWS V14.01,2013-09-22 21:47:00,
2013-09-22 16:52:00,85.5,25.0,29.68,West,273,0.0,0.0,11,0.00,,---,0.00,VWS V14.01,2013-09-22 21:52:00,
2013-09-22 16:57:00,84.9,24.6,29.68,West,273,0.0,0.0,11,0.00,,---,0.00,VWS V14.01,2013-09-22 21:57:00,
2013-09-22 17:03:00,84.6,28.4,29.68,West,275,0.0,0.0,13,0.00,,---,0.00,VWS V14.01,2013-09-22 22:03:00,
2013-09-22 17:08:00,84.4,28.2,29.68,West,275,0.0,0.0,13,0.00,,---,0.00,VWS V14.01,2013-09-22 22:08:00,
2013-09-22 17:13:00,84.2,28.1,29.68,West,277,0.0,0.0,13,0.00,,---,0.00,VWS V14.01,2013-09-22 22:13:00,
2013-09-22 17:18:00,84.0,29.8,29.68,West,274,0.0,0.0,14,0.00,,---,0.00,VWS V14.01,2013-09-22 22:18:00,
2013-09-22 17:24:00,83.7,23.6,29.68,West,277,0.0,0.0,11,0.00,,---,0.00,VWS V14.01,2013-09-22 22:24:00,
2013-09-22 17:29:00,83.3,23.4,29.68,West,273,0.0,0.0,11,0.00,,---,0.00,VWS V14.01,2013-09-22 22:29:00,
2013-09-22 17:35:00,82.9,23.1,29.68,West,275,0.0,0.0,11,0.00,,---,0.00,VWS V14.01,2013-09-22 22:35:00,
2013-09-22 17:40:00,82.9,23.1,29.68,West,273,0.0,0.0,11,0.00,,---,0.00,VWS V14.01,2013-09-22 22:40:00,
2013-09-22 17:46:00,82.8,28.8,29.68,West,273,0.0,0.0,14,0.00,,---,0.00,VWS V14.01,2013-09-22 22:46:00,
2013-09-22 17:51:00,82.6,22.8,29.68,West,278,0.0,0.0,11,0.00,,---,0.00,VWS V14.01,2013-09-22 22:51:00,
2013-09-22 17:57:00,82.2,24.6,29.68,West,275,0.0,0.0,12,0.00,,---,0.00,VWS V14.01,2013-09-22 22:57:00,
2013-09-22 18:03:00,82.2,24.6,29.68,West,273,0.0,0.0,12,0.00,,---,0.00,VWS V14.01,2013-09-22 23:03:00,
2013-09-22 18:08:00,82.0,24.5,29.68,West,275,0.0,0.0,12,0.00,,---,0.00,VWS V14.01,2013-09-22 23:08:00,
2013-09-22 18:13:00,82.0,28.2,29.68,West,277,0.0,0.0,14,0.00,,---,0.00,VWS V14.01,2013-09-22 23:13:00,
2013-09-22 18:18:00,81.9,28.0,29.68,West,273,0.0,0.0,14,0.00,,---,0.00,VWS V14.01,2013-09-22 23:18:00,
2013-09-22 18:24:00,81.7,24.2,29.68,West,273,0.0,0.0,12,0.00,,---,0.00,VWS V14.01,2013-09-22 23:24:00,
2013-09-22 18:29:00,81.5,24.0,29.68,West,273,0.0,0.0,12,0.00,,---,0.00,VWS V14.01,2013-09-22 23:29:00,
2013-09-22 18:35:00,81.5,24.0,29.68,West,274,0.0,0.0,12,0.00,,---,0.00,VWS V14.01,2013-09-22 23:35:00,
2013-09-22 18:40:00,81.3,23.9,29.68,West,276,0.0,0.0,12,0.00,,---,0.00,VWS V14.01,2013-09-22 23:40:00,
2013-09-22 18:46:00,81.1,23.8,29.68,West,273,0.0,0.0,12,0.00,,---,0.00,VWS V14.01,2013-09-22 23:46:00,
2013-09-22 18:51:00,81.1,23.8,29.68,West,273,0.0,0.0,12,0.00,,---,0.00,VWS V14.01,2013-09-22 23:51:00,
2013-09-22 18:56:00,81.1,23.8,29.68,West,275,0.0,0.0,12,0.00,,---,0.00,VWS V14.01,2013-09-22 23:56:00,
2013-09-22 19:02:00,81.0,23.6,29.71,West,273,0.0,0.0,12,0.00,,---,0.00,VWS V14.01,2013-09-23 00:02:00,
2013-09-22 19:08:00,81.0,23.6,29.71,West,275,0.0,0.0,12,0.00,,---,0.00,VWS V14.01,2013-09-23 00:08:00,
2013-09-22 19:14:00,80.8,23.5,29.71,West,273,0.0,0.0,12,0.00,,---,0.00,VWS V14.01,2013-09-23 00:14:00,
2013-09-22 19:19:00,80.8,23.5,29.71,West,278,0.0,0.0,12,0.00,,---,0.00,VWS V14.01,2013-09-23 00:19:00,
2013-09-22 19:24:00,80.6,23.4,29.71,West,275,0.0,0.0,12,0.00,,---,0.00,VWS V14.01,2013-09-23 00:24:00,
2013-09-22 19:29:00,80.6,23.4,29.71,West,273,0.0,0.0,12,0.00,,---,0.00,VWS V14.01,2013-09-23 00:29:00,
2013-09-22 19:35:00,80.4,28.6,29.71,West,273,0.0,0.0,15,0.00,,---,0.00,VWS V14.01,2013-09-23 00:35:00,
2013-09-22 19:40:00,80.4,23.2,29.71,West,273,0.0,0.0,12,0.00,,---,0.00,VWS V14.01,2013-09-23 00:40:00,
2013-09-22 19:45:00,80.4,28.6,29.71,West,273,0.0,0.0,15,0.00,,---,0.00,VWS V14.01,2013-09-23 00:45:00,
2013-09-22 19:51:00,80.2,28.4,29.71,West,273,0.0,0.0,15,0.00,,---,0.00,VWS V14.01,2013-09-23 00:51:00,
2013-09-22 19:56:00,80.2,28.4,29.71,West,276,0.0,0.0,15,0.00,,---,0.00,VWS V14.01,2013-09-23 00:56:00,
2013-09-22 20:02:00,80.1,28.3,29.71,West,273,0.0,0.0,15,0.00,,---,0.00,VWS V14.01,2013-09-23 01:02:00,
2013-09-22 20:07:00,79.9,28.1,29.71,West,273,0.0,0.0,15,0.00,,---,0.00,VWS V14.01,2013-09-23 01:07:00,
2013-09-22 20:13:00,79.9,28.1,29.71,West,273,0.0,0.0,15,0.00,,---,0.00,VWS V14.01,2013-09-23 01:13:00,
2013-09-22 20:19:00,79.7,28.0,29.71,West,273,0.0,0.0,15,0.00,,---,0.00,VWS V14.01,2013-09-23 01:19:00,
2013-09-22 20:24:00,79.7,28.0,29.71,West,277,0.0,0.0,15,0.00,,---,0.00,VWS V14.01,2013-09-23 01:24:00,
2013-09-22 20:30:00,79.5,27.9,29.71,West,273,0.0,0.0,15,0.00,,---,0.00,VWS V14.01,2013-09-23 01:30:00,
2013-09-22 20:35:00,79.3,27.7,29.71,West,277,0.0,0.0,15,0.00,,---,0.00,VWS V14.01,2013-09-23 01:35:00,
2013-09-22 20:40:00,79.3,27.7,29.71,West,278,0.0,0.0,15,0.00,,---,0.00,VWS V14.01,2013-09-23 01:40:00,
2013-09-22 20:45:00,79.3,27.7,29.71,West,276,0.0,0.0,15,0.00,,---,0.00,VWS V14.01,2013-09-23 01:45:00,
2013-09-22 20:50:00,79.2,27.6,29.71,West,273,0.0,0.0,15,0.00,,---,0.00,VWS V14.01,2013-09-23 01:50:00,
2013-09-22 20:56:00,79.0,27.4,29.71,West,273,0.0,0.0,15,0.00,,---,0.00,VWS V14.01,2013-09-23 01:56:00,
2013-09-22 21:01:00,79.0,27.4,29.71,West,275,0.0,0.0,15,0.00,,---,0.00,VWS V14.01,2013-09-23 02:01:00,
2013-09-22 21:06:00,78.8,27.3,29.71,West,274,0.0,0.0,15,0.00,,---,0.00,VWS V14.01,2013-09-23 02:06:00,
2013-09-22 21:12:00,78.6,27.1,29.71,West,273,0.0,0.0,15,0.00,,---,0.00,VWS V14.01,2013-09-23 02:12:00,
2013-09-22 21:17:00,78.6,27.1,29.71,West,278,0.0,0.0,15,0.00,,---,0.00,VWS V14.01,2013-09-23 02:17:00,
2013-09-22 21:23:00,78.4,27.0,29.71,West,273,0.0,0.0,15,0.00,,---,0.00,VWS V14.01,2013-09-23 02:23:00,
2013-09-22 21:28:00,78.1,26.7,29.71,West,273,0.0,0.0,15,0.00,,---,0.00,VWS V14.01,2013-09-23 02:28:00,
2013-09-22 21:33:00,77.9,26.6,29.71,West,273,0.0,0.0,15,0.00,,---,0.00,VWS V14.01,2013-09-23 02:33:00,
2013-09-22 21:38:00,77.5,26.3,29.71,West,277,0.0,0.0,15,0.00,,---,0.00,VWS V14.01,2013-09-23 02:38:00,
2013-09-22 21:43:00,77.4,30.6,29.71,West,276,0.0,0.0,18,0.00,,---,0.00,VWS V14.01,2013-09-23 02:43:00,
2013-09-22 21:48:00,77.2,30.4,29.71,West,274,0.0,0.0,18,0.00,,---,0.00,VWS V14.01,2013-09-23 02:48:00,
2013-09-22 21:53:00,77.0,30.3,29.71,West,273,0.0,0.0,18,0.00,,---,0.00,VWS V14.01,2013-09-23 02:53:00,
2013-09-22 21:59:00,76.8,30.1,29.74,West,275,0.0,0.0,18,0.00,,---,0.00,VWS V14.01,2013-09-23 02:59:00,
2013-09-22 22:05:00,76.8,32.8,29.74,West,278,0.0,0.0,20,0.00,,---,0.00,VWS V14.01,2013-09-23 03:05:00,
2013-09-22 22:10:00,76.8,32.8,29.74,West,278,0.0,0.0,20,0.00,,---,0.00,VWS V14.01,2013-09-23 03:10:00,
2013-09-22 22:16:00,76.6,32.6,29.74,West,278,0.0,0.0,20,0.00,,---,0.00,VWS V14.01,2013-09-23 03:16:00,
2013-09-22 22:21:00,76.6,32.6,29.74,West,273,0.0,0.0,20,0.00,,---,0.00,VWS V14.01,2013-09-23 03:21:00,
2013-09-22 22:26:00,76.6,33.8,29.74,West,273,0.0,0.0,21,0.00,,---,0.00,VWS V14.01,2013-09-23 03:26:00,
2013-09-22 22:32:00,76.5,33.7,29.74,West,275,0.0,0.0,21,0.00,,---,0.00,VWS V14.01,2013-09-23 03:32:00,
2013-09-22 22:37:00,76.3,33.5,29.74,West,273,0.0,0.0,21,0.00,,---,0.00,VWS V14.01,2013-09-23 03:37:00,
2013-09-22 22:43:00,76.1,33.4,29.74,West,276,0.0,0.0,21,0.00,,---,0.00,VWS V14.01,2013-09-23 03:43:00,
2013-09-22 22:48:00,76.1,33.4,29.74,West,278,0.0,0.0,21,0.00,,---,0.00,VWS V14.01,2013-09-23 03:48:00,
2013-09-22 22:54:00,76.1,33.4,29.74,West,274,0.0,0.0,21,0.00,,---,0.00,VWS V14.01,2013-09-23 03:54:00,
2013-09-22 22:59:00,76.1,33.4,29.74,West,273,0.0,0.0,21,0.00,,---,0.00,VWS V14.01,2013-09-23 03:59:00,
2013-09-22 23:01:00,75.9,33.2,29.74,West,273,0.0,0.0,21,0.00,,---,0.00,VWS V14.01,2013-09-23 04:01:00,
2013-09-22 23:03:00,75.9,33.2,29.74,West,278,0.0,0.0,21,0.00,,---,0.00,VWS V14.01,2013-09-23 04:03:00,
2013-09-22 23:04:00,75.9,33.2,29.74,West,278,0.0,0.0,21,0.00,,---,0.00,VWS V14.01,2013-09-23 04:04:00,
2013-09-22 23:05:00,75.9,33.2,29.74,West,273,0.0,0.0,21,0.00,,---,0.00,VWS V14.01,2013-09-23 04:05:00,
2013-09-22 23:11:00,75.9,33.2,29.74,West,273,0.0,0.0,21,0.00,,---,0.00,VWS V14.01,2013-09-23 04:11:00,
2013-09-22 23:16:00,75.7,33.1,29.74,West,277,0.0,0.0,21,0.00,,---,0.00,VWS V14.01,2013-09-23 04:16:00,
2013-09-22 23:17:00,75.7,33.1,29.74,West,273,0.0,0.0,21,0.00,,---,0.00,VWS V14.01,2013-09-23 04:17:00,
2013-09-22 23:22:00,75.7,33.1,29.74,West,273,0.0,0.0,21,0.00,,---,0.00,VWS V14.01,2013-09-23 04:22:00,
2013-09-22 23:28:00,75.7,33.1,29.74,West,278,0.0,0.0,21,0.00,,---,0.00,VWS V14.01,2013-09-23 04:28:00,
2013-09-22 23:33:00,75.7,33.1,29.74,West,273,0.0,0.0,21,0.00,,---,0.00,VWS V14.01,2013-09-23 04:33:00,
2013-09-22 23:39:00,75.7,33.1,29.74,West,273,0.0,0.0,21,0.00,,---,0.00,VWS V14.01,2013-09-23 04:39:00,
2013-09-22 23:44:00,75.7,33.1,29.74,West,275,0.0,0.0,21,0.00,,---,0.00,VWS V14.01,2013-09-23 04:44:00,
2013-09-22 23:50:00,75.6,32.9,29.74,West,274,0.0,0.0,21,0.00,,---,0.00,VWS V14.01,2013-09-23 04:50:00,
2013-09-22 23:56:00,75.6,32.9,29.74,West,273,0.0,0.0,21,0.00,,---,0.00,VWS V14.01,2013-09-23 04:56:00,